• In Österreich
  • Länderverzeichnis
  • Für 7 Tage
  • Wassertemperatur
  • Satellitenkarten
  • Wetterkarte
  • News
  • Widgets
  • user-avatar
    Anmelden

    Stündliche Wetter La Palma

    Heute, 21 Oktober, Sonntag

    Zeit Temperatur Niederschläge Wind Luftdruck Luftfeuchtigkeit
    00:00 +26°C° 0.3 mm 1 m/S 757 mmHg 98%
    01:00 +24°C° 0 mm 0 m/S 757 mmHg 98%
    02:00 +24°C° 0.3 mm 0 m/S 757 mmHg 98%
    03:00 +23°C° 0.3 mm 0 m/S 756 mmHg 98%
    04:00 +23°C° 0.3 mm 0 m/S 756 mmHg 98%
    05:00 +24°C° 0 mm 0 m/S 757 mmHg 97%
    06:00 +24°C° 0 mm 0 m/S 757 mmHg 97%
    07:00 +24°C° 0 mm 0 m/S 757 mmHg 96%
    08:00 +28°C° 0.4 mm 1 m/S 757 mmHg 87%
    09:00 +30°C° 0.4 mm 1 m/S 758 mmHg 78%
    10:00 +32°C° 0.4 mm 1 m/S 758 mmHg 70%
    11:00 +32°C° 1.7 mm 1 m/S 757 mmHg 75%
    12:00 +32°C° 1.7 mm 2 m/S 757 mmHg 79%
    13:00 +31°C° 1.7 mm 2 m/S 756 mmHg 84%
    14:00 +31°C° 1.9 mm 2 m/S 756 mmHg 88%
    15:00 +30°C° 1.9 mm 2 m/S 756 mmHg 91%
    16:00 +29°C° 1.9 mm 2 m/S 755 mmHg 94%
    17:00 +28°C° 1.9 mm 1 m/S 756 mmHg 95%
    18:00 +27°C° 1.9 mm 1 m/S 756 mmHg 96%
    19:00 +26°C° 1.9 mm 1 m/S 756 mmHg 97%
    20:00 +26°C° 0.8 mm 1 m/S 757 mmHg 97%
    21:00 +26°C° 0.8 mm 1 m/S 757 mmHg 97%
    22:00 +26°C° 0.8 mm 1 m/S 758 mmHg 98%
    23:00 +26°C° 1 mm 1 m/S 758 mmHg 98%

    Morgen, 22 Oktober, Montag

    Zeit Temperatur Niederschläge Wind Luftdruck Luftfeuchtigkeit
    00:00 +26°C° 1 mm 1 m/S 757 mmHg 98%
    01:00 +25°C° 1 mm 1 m/S 757 mmHg 98%
    02:00 +25°C° 1 mm 1 m/S 757 mmHg 98%
    03:00 +25°C° 1 mm 1 m/S 757 mmHg 98%
    04:00 +25°C° 1 mm 1 m/S 756 mmHg 98%
    05:00 +25°C° 0.6 mm 1 m/S 757 mmHg 98%
    06:00 +25°C° 0.6 mm 1 m/S 757 mmHg 98%
    07:00 +26°C° 0.6 mm 1 m/S 757 mmHg 98%
    08:00 +27°C° 0.3 mm 1 m/S 758 mmHg 92%
    09:00 +29°C° 0.3 mm 1 m/S 758 mmHg 86%
    10:00 +30°C° 0.3 mm 1 m/S 758 mmHg 81%
    11:00 +31°C° 1.3 mm 1 m/S 758 mmHg 81%
    12:00 +31°C° 1.3 mm 1 m/S 757 mmHg 82%
    13:00 +32°C° 1.3 mm 2 m/S 757 mmHg 83%
    14:00 +31°C° 2.6 mm 2 m/S 756 mmHg 86%
    15:00 +30°C° 2.6 mm 2 m/S 756 mmHg 89%
    16:00 +29°C° 2.6 mm 2 m/S 756 mmHg 93%
    17:00 +28°C° 1.8 mm 2 m/S 756 mmHg 94%
    18:00 +28°C° 1.8 mm 1 m/S 756 mmHg 95%
    19:00 +27°C° 1.8 mm 1 m/S 757 mmHg 96%
    20:00 +26°C° 1.3 mm 1 m/S 757 mmHg 97%
    21:00 +26°C° 1.3 mm 1 m/S 758 mmHg 97%
    22:00 +26°C° 1.3 mm 1 m/S 758 mmHg 98%
    23:00 +26°C° 0.9 mm 1 m/S 758 mmHg 98%

    übermorgen, 23 Oktober, Dienstag

    Zeit Temperatur Niederschläge Wind Luftdruck Luftfeuchtigkeit
    00:00 +26°C° 0.9 mm 1 m/S 758 mmHg 98%
    01:00 +25°C° 0.9 mm 1 m/S 758 mmHg 98%
    02:00 +25°C° 0.7 mm 1 m/S 757 mmHg 99%
    03:00 +25°C° 0.7 mm 1 m/S 757 mmHg 99%
    04:00 +25°C° 0.7 mm 1 m/S 757 mmHg 99%
    05:00 +25°C° 0.5 mm 1 m/S 757 mmHg 98%
    06:00 +25°C° 0.5 mm 1 m/S 757 mmHg 98%
    07:00 +26°C° 0.5 mm 1 m/S 758 mmHg 97%
    08:00 +27°C° 0.6 mm 1 m/S 758 mmHg 90%
    09:00 +29°C° 0.6 mm 1 m/S 759 mmHg 83%
    10:00 +31°C° 0.6 mm 1 m/S 759 mmHg 76%
    11:00 +31°C° 1.7 mm 1 m/S 758 mmHg 79%
    12:00 +31°C° 1.7 mm 1 m/S 758 mmHg 82%
    13:00 +31°C° 1.7 mm 1 m/S 757 mmHg 84%
    14:00 +30°C° 1.6 mm 1 m/S 757 mmHg 87%
    15:00 +30°C° 1.6 mm 1 m/S 756 mmHg 90%
    16:00 +29°C° 1.6 mm 1 m/S 756 mmHg 92%
    17:00 +28°C° 1.1 mm 1 m/S 756 mmHg 94%
    18:00 +27°C° 1.1 mm 1 m/S 757 mmHg 95%
    19:00 +24°C° 1.1 mm 0 m/S 757 mmHg 97%
    20:00 +24°C° 0.3 mm 0 m/S 758 mmHg 97%
    21:00 +26°C° 0.3 mm 1 m/S 758 mmHg 97%
    22:00 +26°C° 0.3 mm 1 m/S 759 mmHg 98%
    23:00 +25°C° 0.2 mm 1 m/S 758 mmHg 98%

    24 Oktober, Mittwoch

    Zeit Temperatur Niederschläge Wind Luftdruck Luftfeuchtigkeit
    00:00 +25°C° 0.2 mm 1 m/S 758 mmHg 98%
    01:00 +25°C° 0.2 mm 1 m/S 758 mmHg 98%
    02:00 +25°C° 0.1 mm 1 m/S 758 mmHg 98%
    03:00 +23°C° 0.1 mm 0 m/S 757 mmHg 98%
    04:00 +23°C° 0.1 mm 0 m/S 757 mmHg 98%
    05:00 +23°C° 0.1 mm 0 m/S 757 mmHg 98%
    06:00 +23°C° 0.1 mm 0 m/S 758 mmHg 97%
    07:00 +23°C° 0.1 mm 0 m/S 758 mmHg 97%
    08:00 +26°C° 0 mm 0 m/S 758 mmHg 87%
    09:00 +28°C° 0 mm 0 m/S 759 mmHg 78%
    10:00 +30°C° 0 mm 0 m/S 759 mmHg 68%
    11:00 +32°C° 0.9 mm 1 m/S 758 mmHg 73%
    12:00 +32°C° 0.9 mm 1 m/S 758 mmHg 79%
    13:00 +31°C° 0.9 mm 2 m/S 757 mmHg 84%
    14:00 +31°C° 2.1 mm 2 m/S 756 mmHg 87%
    15:00 +30°C° 2.1 mm 2 m/S 756 mmHg 90%
    16:00 +29°C° 2.1 mm 2 m/S 756 mmHg 93%
    17:00 +28°C° 1.6 mm 1 m/S 756 mmHg 94%
    18:00 +27°C° 1.6 mm 1 m/S 756 mmHg 95%
    19:00 +26°C° 1.6 mm 1 m/S 757 mmHg 96%
    20:00 +26°C° 0.6 mm 1 m/S 757 mmHg 97%
    21:00 +26°C° 0.6 mm 1 m/S 758 mmHg 97%
    22:00 +24°C° 0.6 mm 0 m/S 758 mmHg 97%
    23:00 +24°C° 0.2 mm 0 m/S 758 mmHg 98%

    25 Oktober, Donnerstag

    Zeit Temperatur Niederschläge Wind Luftdruck Luftfeuchtigkeit
    00:00 +23°C° 0.2 mm 0 m/S 758 mmHg 98%
    01:00 +23°C° 0.2 mm 0 m/S 757 mmHg 98%
    02:00 +23°C° 0.2 mm 0 m/S 757 mmHg 98%
    03:00 +23°C° 0.2 mm 0 m/S 757 mmHg 98%
    04:00 +23°C° 0.2 mm 0 m/S 757 mmHg 98%
    05:00 +23°C° 0 mm 0 m/S 757 mmHg 98%
    06:00 +24°C° 0 mm 0 m/S 757 mmHg 98%
    07:00 +24°C° 0 mm 0 m/S 758 mmHg 97%
    08:00 +27°C° 0.6 mm 1 m/S 758 mmHg 93%
    09:00 +29°C° 0.6 mm 1 m/S 758 mmHg 89%
    10:00 +30°C° 0.6 mm 1 m/S 759 mmHg 84%
    11:00 +30°C° 1.1 mm 1 m/S 758 mmHg 85%
    12:00 +30°C° 1.1 mm 1 m/S 757 mmHg 87%
    13:00 +30°C° 1.1 mm 2 m/S 756 mmHg 88%
    14:00 +30°C° 1.4 mm 2 m/S 756 mmHg 90%
    15:00 +29°C° 1.4 mm 2 m/S 755 mmHg 92%
    16:00 +29°C° 1.4 mm 2 m/S 755 mmHg 94%
    17:00 +28°C° 1.2 mm 1 m/S 756 mmHg 95%
    18:00 +27°C° 1.2 mm 1 m/S 756 mmHg 96%
    19:00 +26°C° 1.2 mm 1 m/S 757 mmHg 97%
    20:00 +26°C° 0.4 mm 1 m/S 757 mmHg 97%
    21:00 +26°C° 0.4 mm 1 m/S 757 mmHg 98%
    22:00 +26°C° 0.4 mm 1 m/S 758 mmHg 98%
    23:00 +26°C° 0.7 mm 1 m/S 757 mmHg 98%

    26 Oktober, Freitag

    Zeit Temperatur Niederschläge Wind Luftdruck Luftfeuchtigkeit
    00:00 +25°C° 0.7 mm 1 m/S 757 mmHg 98%
    01:00 +25°C° 0.7 mm 1 m/S 757 mmHg 99%
    02:00 +25°C° 0.9 mm 1 m/S 757 mmHg 99%
    03:00 +23°C° 0.9 mm 0 m/S 756 mmHg 99%
    04:00 +23°C° 0.9 mm 0 m/S 756 mmHg 99%
    05:00 +23°C° 1 mm 0 m/S 757 mmHg 98%
    06:00 +23°C° 1 mm 0 m/S 757 mmHg 98%
    07:00 +26°C° 1 mm 1 m/S 758 mmHg 98%
    08:00 +25°C° 0.9 mm 0 m/S 758 mmHg 93%
    09:00 +27°C° 0.9 mm 0 m/S 758 mmHg 88%
    10:00 +28°C° 0.9 mm 0 m/S 758 mmHg 84%
    11:00 +31°C° 2.4 mm 1 m/S 758 mmHg 84%
    12:00 +31°C° 2.4 mm 1 m/S 757 mmHg 85%
    13:00 +31°C° 2.4 mm 2 m/S 756 mmHg 86%
    14:00 +30°C° 2.4 mm 1 m/S 756 mmHg 89%
    15:00 +30°C° 2.4 mm 1 m/S 755 mmHg 91%
    16:00 +29°C° 2.4 mm 1 m/S 755 mmHg 94%
    17:00 +28°C° 1.4 mm 1 m/S 756 mmHg 95%
    18:00 +27°C° 1.4 mm 1 m/S 756 mmHg 95%
    19:00 +24°C° 1.4 mm 0 m/S 757 mmHg 96%
    20:00 +24°C° 0.4 mm 0 m/S 757 mmHg 97%
    21:00 +24°C° 0.4 mm 0 m/S 758 mmHg 97%
    22:00 +26°C° 0.4 mm 1 m/S 758 mmHg 98%
    23:00 +26°C° 0.5 mm 1 m/S 757 mmHg 98%
    Mehr zeigen